This is the latest recevied weather packets stored in our database for station/object KE7JVX-3. If no packets are shown the sender has not sent any weather packets the latest 10 day(s).
| Time | Temp. | Humidity | Pressure | Rain* | Wind** | Luminosity | Snow |
|---|---|---|---|---|---|---|---|
| 1777842567 | 12.78° C | 32% | 1012 hPa | 0 mm | - | - | - |
| 1777841967 | 12.22° C | 30% | 1012.1 hPa | 0 mm | - | - | - |
| 1777841368 | 13.89° C | 28% | 1012.1 hPa | 0 mm | - | - | - |
| 1777840767 | 13.33° C | 30% | 1012.2 hPa | 0 mm | - | - | - |
| 1777840167 | 13.33° C | 29% | 1012.2 hPa | 0 mm | - | - | - |
| 1777839567 | 13.33° C | 29% | 1012.4 hPa | 0 mm | - | - | - |
| 1777838967 | 13.33° C | 31% | 1012.4 hPa | 0 mm | - | - | - |
| 1777838367 | 13.33° C | 30% | 1012.4 hPa | 0 mm | - | - | - |
| 1777837769 | 13.33° C | 29% | 1012.6 hPa | 0 mm | - | - | - |
| 1777837169 | 13.33° C | 30% | 1012.7 hPa | 0 mm | - | - | - |
| 1777836567 | 13.33° C | 31% | 1012.7 hPa | 0 mm | - | - | - |
| 1777835967 | 13.33° C | 31% | 1012.9 hPa | 0 mm | - | - | - |
| 1777835367 | 13.89° C | 33% | 1012.9 hPa | 0 mm | - | - | - |
| 1777834768 | 13.33° C | 33% | 1013 hPa | 0 mm | - | - | - |
| 1777834168 | 12.22° C | 36% | 1013.1 hPa | 0 mm | - | - | - |
| 1777833567 | 12.22° C | 37% | 1013.1 hPa | 0 mm | - | - | - |
| 1777832967 | 11.67° C | 38% | 1013.1 hPa | 0 mm | - | - | - |
| 1777832369 | 11.67° C | 36% | 1013.2 hPa | 0 mm | - | - | - |
| 1777831767 | 12.22° C | 36% | 1013.2 hPa | 0 mm | - | - | - |
| 1777831167 | 11.67° C | 38% | 1013.4 hPa | 0 mm | - | - | - |
| 1777830567 | 11.11° C | 41% | 1013.5 hPa | 0 mm | - | - | - |
| 1777829967 | 11.11° C | 39% | 1013.4 hPa | 0 mm | - | - | - |
| 1777829367 | 10.56° C | 41% | 1013.5 hPa | 0 mm | - | - | - |
| 1777828767 | 10.56° C | 42% | 1013.5 hPa | 0 mm | - | - | - |
| 1777828167 | 10° C | 43% | 1013.4 hPa | 0 mm | - | - | - |
* Rain latest hour (hover to see other rain measurements)
** Current wind speed in m/s (hover to see current wind gust speed)